This is the latest recevied weather packets stored in our database for station/object KC5EZZ-2. If no packets are shown the sender has not sent any weather packets the latest 10 day(s).
| Time | Temp. | Humidity | Pressure | Rain* | Wind** | Luminosity | Snow |
|---|---|---|---|---|---|---|---|
| 1787648337 | 27.22° C | - | - | 0 mm | 4.92 m/s, 167° | - | - |
| 1787648033 | 27.22° C | - | - | 0 mm | 5.36 m/s, 167° | - | - |
| 1787647734 | 27.22° C | - | - | 0 mm | 4.47 m/s, 169° | - | - |
| 1787647434 | 27.22° C | - | - | 0 mm | 4.47 m/s, 152° | - | - |
| 1787647132 | 27.78° C | - | - | 0 mm | 4.47 m/s, 163° | - | - |
| 1787646832 | 27.78° C | - | - | 0 mm | 4.47 m/s, 159° | - | - |
| 1787646532 | 27.22° C | - | - | 0 mm | 3.13 m/s, 162° | - | - |
| 1787646230 | 27.78° C | - | - | 0 mm | 4.47 m/s, 163° | - | - |
| 1787645930 | 27.78° C | - | - | 0 mm | 3.58 m/s, 152° | - | - |
| 1787645631 | 27.78° C | - | - | 0 mm | 4.02 m/s, 158° | - | - |
| 1787645328 | 27.78° C | - | - | 0 mm | 3.58 m/s, 180° | - | - |
| 1787645029 | 27.78° C | - | - | 0 mm | 4.47 m/s, 176° | - | - |
| 1787644727 | 27.78° C | - | - | 0 mm | 4.02 m/s, 167° | - | - |
| 1787644426 | 27.78° C | - | - | 0 mm | 4.47 m/s, 166° | - | - |
| 1787644125 | 28.33° C | - | - | 0 mm | 4.02 m/s, 163° | - | - |
| 1787643827 | 28.33° C | - | - | 0 mm | 3.13 m/s, 150° | - | - |
| 1787643523 | 28.33° C | - | - | 0 mm | 4.02 m/s, 166° | - | - |
| 1787643223 | 27.78° C | - | - | 0 mm | 3.58 m/s, 149° | - | - |
| 1787642924 | 27.78° C | - | - | 0 mm | 3.13 m/s, 169° | - | - |
| 1787642517 | 26.67° C | - | - | 0 mm | 0 m/s | - | - |
| 1787642319 | 28.33° C | - | - | 0 mm | 3.13 m/s, 131° | - | - |
| 1787642216 | 26.67° C | - | - | 0 mm | 0 m/s | - | - |
| 1787642021 | 28.33° C | - | - | 0 mm | 2.68 m/s, 162° | - | - |
| 1787641717 | 28.33° C | - | - | 0 mm | 2.68 m/s, 156° | - | - |
| 1787641118 | 28.33° C | - | - | 0 mm | 3.58 m/s, 146° | - | - |
* Rain latest hour (hover to see other rain measurements)
** Current wind speed in m/s (hover to see current wind gust speed)